{"data":{"norad_id":52606,"intl_designator":"2022-052J","name":"STARLINK-3928","alt_names":[],"object_type":"PAYLOAD","status":"ACTIVE","operator":null,"country":"US","launch_date":"2022-05-14","launch_site_code":"AFETR","launch_vehicle":null,"mission":null,"orbit_class":"UNKNOWN","rcs_meters":null,"size_class":null,"mass_kg":null,"dimensions":null,"purposes":["comms"],"wikipedia_slug":null,"has_3d_model":false,"image_url":null,"decayed_at":null,"tle_current":{"epoch":"2026-09-20T04:28:28.752096Z","epoch_age_seconds":90356,"freshness":"FRESH","line1":"1 52606U 22052J   26263.18644389 -.00000617  00000+0 -14874-4 0  9995","line2":"2 52606  53.1610 121.7167 0001440  81.3271 278.7887 15.17583444240277","mean_motion":15.17583444,"eccentricity":0.000144,"inclination_deg":53.161,"raan_deg":121.7167,"arg_perigee_deg":81.3271,"mean_anomaly_deg":278.7887,"bstar":-1.4874e-5,"rev_number":24027,"period_min":94.887698313609,"perigee_km":512.15422874667,"apogee_km":514.13891841586,"semimajor_km":6891.2835735813,"source":"CELESTRAK","updated_at":"2026-09-20T09:00:40.069157Z"}}}